Estación de El Tambo INIA
Ultimos registro cada 15 minutos 31
| N° | Estación | Fecha / Hora | Temperatura | Humedad | Lluvia | Velocidad | Dirección | Radiación | Presion |
| 31 | El Tambo INIA | 06-09-2026 07:30 | 2,4 | 94,8 | 0 | 0,1 | 78 | 47,6 | 983 |
| 30 | El Tambo INIA | 06-09-2026 07:15 | 1,6 | 96,8 | 0 | 0 | 0 | 9,9 | 983 |
| 29 | El Tambo INIA | 06-09-2026 07:00 | 1,7 | 95,7 | 0 | 0 | 0 | 2,9 | 983 |
| 28 | El Tambo INIA | 06-09-2026 06:45 | 2 | 94,9 | 0 | 0 | 0 | 0,4 | 983 |
| 27 | El Tambo INIA | 06-09-2026 06:30 | 1,8 | 96,7 | 0 | 0 | 0 | 0 | 983 |
| 26 | El Tambo INIA | 06-09-2026 06:15 | 2 | 94,8 | 0 | 0 | 0 | 0 | 983 |
| 25 | El Tambo INIA | 06-09-2026 06:00 | 2,3 | 95,4 | 0 | 0 | 0 | 0 | 983 |
| 24 | El Tambo INIA | 06-09-2026 05:45 | 2,6 | 94,9 | 0 | 0 | 0 | 0 | 983 |
| 23 | El Tambo INIA | 06-09-2026 05:30 | 3 | 93,9 | 0 | 0 | 71 | 0 | 983 |
| 22 | El Tambo INIA | 06-09-2026 05:15 | 3 | 94,2 | 0 | 0 | 79 | 0 | 983 |
| 21 | El Tambo INIA | 06-09-2026 05:00 | 2,9 | 94,6 | 0 | 0 | 79 | 0 | 983 |
| 20 | El Tambo INIA | 06-09-2026 04:45 | 2,9 | 94,3 | 0 | 0 | 52 | 0 | 983 |
| 19 | El Tambo INIA | 06-09-2026 04:30 | 3,5 | 92,6 | 0 | 0 | 0 | 0 | 983 |
| 18 | El Tambo INIA | 06-09-2026 04:15 | 3,7 | 93,4 | 0 | 0 | 0 | 0 | 983 |
| 17 | El Tambo INIA | 06-09-2026 04:00 | 4 | 92,2 | 0 | 0,1 | 77 | 0 | 983 |
| 16 | El Tambo INIA | 06-09-2026 03:45 | 3,9 | 93 | 0 | 0,1 | 81 | 0 | 983 |
| 15 | El Tambo INIA | 06-09-2026 03:30 | 3,7 | 93,4 | 0 | 0 | 82 | 0 | 984 |
| 14 | El Tambo INIA | 06-09-2026 03:15 | 3,7 | 93,4 | 0 | 0 | 0 | 0 | 984 |
| 13 | El Tambo INIA | 06-09-2026 03:00 | 3,8 | 93,2 | 0 | 0 | 0 | 0 | 984 |
| 12 | El Tambo INIA | 06-09-2026 02:45 | 4,2 | 91,5 | 0 | 0 | 0 | 0 | 984 |
| 11 | El Tambo INIA | 06-09-2026 02:30 | 4,4 | 90,3 | 0 | 0 | 0 | 0 | 984 |
| 10 | El Tambo INIA | 06-09-2026 02:15 | 4,7 | 90,1 | 0 | 0 | 0 | 0 | 984 |
| 9 | El Tambo INIA | 06-09-2026 02:00 | 5,6 | 87,4 | 0 | 0 | 0 | 0 | 985 |
| 8 | El Tambo INIA | 06-09-2026 01:45 | 6,3 | 84,4 | 0 | 0 | 0 | 0 | 985 |
| 7 | El Tambo INIA | 06-09-2026 01:30 | 7 | 80,3 | 0 | 0 | 0 | 0 | 985 |
| 6 | El Tambo INIA | 06-09-2026 01:15 | 7,3 | 79,1 | 0 | 0 | 94 | 0 | 985 |
| 5 | El Tambo INIA | 06-09-2026 01:00 | 7,2 | 78,8 | 0 | 0 | 96 | 0 | 985 |
| 4 | El Tambo INIA | 06-09-2026 00:45 | 7,1 | 79,5 | 0 | 0 | 0 | 0 | 985 |
| 3 | El Tambo INIA | 06-09-2026 00:30 | 7,8 | 78,1 | 0 | 0 | 0 | 0 | 985 |
| 2 | El Tambo INIA | 06-09-2026 00:15 | 7,9 | 75,4 | 0 | 0 | 84 | 0 | 985 |
| 1 | El Tambo INIA | 06-09-2026 00:00 | 8,2 | 76,5 | 0 | 0 | 0 | 0 | 985 |